Wind_Speed
18 17 16 16 16 15 15 14 14 13 14 14 14 12 12 11 9 8 7 6 7 6 5 4 3 4 5 6 7 8 8 8 7 8 8 8 8 8 8 8 8 8 8 8 8 8 9 10 11 11 11 12 12 13 12 12 11 10 10 9 8 8 7 7 9 10 8 7 8 9 11 13 13 13 14 12 13 15 13 11 12 13 12 11 11
17 16 15 14 15 14 14 15 14 13 14 14 14 13 12 11 10 9 8 7 6 6 5 4 4 5 6 6 7 7 7 8 7 7 8 8 7 7 7 7 8 7 7 8 8 8 8 9 10 10 11 11 12 13 13 13 12 11 10 10 9 9 7 6 7 10 9 8 8 9 11 13 13 13 15 14 13 15 15 13 12 13 12 11 11
16 15 14 13 13 13 14 14 14 13 13 13 14 14 13 12 10 9 8 7 7 6 5 5 5 6 6 6 7 6 6 7 7 6 6 7 7 6 6 6 7 8 8 8 8 7 7 8 9 10 10 10 11 12 13 12 11 11 11 10 9 9 8 6 5 7 9 10 10 9 11 13 13 12 14 14 13 14 15 14 13 13 13 12 11
16 14 13 13 13 13 13 14 14 14 13 13 14 14 13 12 10 9 8 8 7 6 6 6 6 6 7 7 7 6 6 7 7 7 7 7 7 7 7 7 7 8 8 8 7 7 6 7 8 9 10 10 11 12 12 11 10 10 11 10 9 8 8 6 6 6 7 9 10 10 10 13 13 12 13 14 14 14 14 14 14 13 13 12 11
16 15 14 14 13 13 13 13 14 13 13 13 14 13 12 12 11 9 8 8 8 7 7 6 7 7 7 7 7 6 6 6 6 7 7 7 8 7 7 7 7 7 7 7 7 6 6 6 6 8 10 11 11 11 11 12 10 10 10 10 9 8 7 7 7 7 7 8 10 10 10 11 12 12 12 13 14 14 14 14 14 13 13 13 12
17 16 15 14 13 13 13 13 13 13 12 13 13 13 12 12 11 9 8 9 9 7 7 6 7 8 8 7 7 7 6 6 6 7 7 7 7 7 7 7 6 6 6 6 6 5 6 6 6 6 8 9 10 11 12 12 11 10 9 9 8 8 7 8 8 8 9 9 9 10 11 11 11 12 13 13 13 14 14 14 15 14 14 13 12
18 17 15 14 13 12 12 13 14 14 14 13 13 12 12 12 10 9 9 9 8 7 7 6 6 7 8 7 6 6 5 5 6 6 7 7 7 7 7 6 6 6 5 5 5 5 5 6 5 6 6 7 8 9 10 11 11 10 9 8 8 7 7 8 8 9 9 10 10 10 11 11 12 12 12 13 14 14 13 14 15 15 15 15 14
20 20 17 16 15 12 11 12 14 14 14 15 14 13 11 10 9 9 9 9 8 8 7 7 7 7 7 7 6 5 4 4 5 5 6 6 6 7 7 8 7 6 6 5 5 5 6 6 6 6 6 7 8 8 8 10 9 9 9 8 7 7 7 7 8 9 9 10 11 11 11 11 12 12 12 12 14 15 14 14 14 14 15 16 16
22 22 21 20 19 15 12 13 14 15 16 17 17 16 13 10 9 9 8 8 8 8 7 7 7 7 7 6 5 4 3 4 5 5 4 5 6 7 8 8 8 7 7 6 6 6 6 6 6 5 6 7 7 7 7 8 8 7 7 7 8 8 9 8 8 8 9 9 10 10 11 11 11 12 12 13 14 14 15 15 15 15 15 14 15
24 23 23 22 23 21 19 18 18 18 19 18 18 17 13 10 8 7 7 7 8 8 7 6 6 6 7 6 5 4 4 4 5 6 5 4 3 5 7 8 8 7 7 6 6 6 6 6 5 5 5 4 4 5 5 6 6 7 6 6 7 8 8 9 9 9 9 9 10 10 11 12 11 12 13 14 15 14 14 15 15 16 16 14 13
20 20 20 22 25 26 23 22 21 20 20 19 17 16 14 12 10 7 6 6 7 7 7 6 5 6 7 7 5 5 4 3 4 5 5 4 2 3 4 6 6 6 6 6 6 6 6 6 5 5 4 4 4 4 4 5 6 7 8 8 9 9 9 9 9 9 10 10 10 10 11 12 12 12 13 14 15 15 15 15 16 17 17 15 14
21 22 23 24 26 26 23 22 21 19 18 17 17 16 15 15 13 10 8 7 7 9 9 8 8 8 9 9 7 6 5 4 3 3 3 3 3 2 3 4 5 5 5 5 5 6 6 5 5 4 4 5 4 4 5 6 6 7 8 9 10 11 11 11 11 10 10 11 12 12 13 13 13 13 14 13 14 15 16 17 17 18 18 18 18
28 27 26 25 25 24 22 21 20 19 18 17 17 16 15 15 15 14 12 9 9 11 12 12 12 11 12 12 11 9 7 5 4 3 2 2 2 3 2 3 4 4 3 3 3 3 4 4 3 3 4 5 5 4 5 6 7 8 9 10 11 12 13 14 14 13 12 12 12 13 13 13 13 14 13 12 13 14 16 17 17 18 19 20 19
29 28 26 25 25 25 24 22 21 20 19 18 18 18 17 17 17 15 14 13 12 13 14 14 14 13 13 13 13 12 10 7 5 3 2 2 3 2 1 0 1 2 2 2 2 2 2 3 4 4 4 5 5 5 5 6 7 8 9 10 12 14 14 15 16 16 16 16 16 15 14 14 14 14 13 13 13 14 15 16 16 17 17 16 15
29 29 28 26 26 26 25 24 22 19 18 20 20 20 20 20 19 17 16 15 15 14 15 16 15 14 13 12 12 12 11 8 7 5 3 2 3 2 2 1 0 0 0 0 1 1 2 3 3 4 4 4 6 8 7 7 7 9 10 11 12 13 14 16 18 18 19 20 20 18 16 16 15 14 12 13 14 14 15 14 13 13 12 12 13
30 30 29 27 26 24 22 23 23 20 18 18 18 18 20 20 20 19 18 17 16 14 15 16 15 14 13 11 11 10 9 8 6 5 4 3 3 3 3 2 2 1 1 1 1 1 1 2 3 3 3 3 7 10 9 9 9 10 12 13 14 15 15 17 20 20 20 21 21 20 20 20 19 17 15 15 15 13 12 12 11 11 12 13 14
31 30 29 27 26 24 23 24 24 23 22 20 17 17 17 18 19 20 19 19 17 15 15 15 15 14 12 11 10 8 6 6 5 5 4 3 3 4 3 1 1 1 1 2 2 1 3 5 4 4 3 5 8 11 11 11 10 10 12 14 15 15 16 17 20 23 22 22 23 23 24 24 24 24 23 23 21 17 13 13 13 13 15 16 17
28 28 27 25 25 24 24 22 20 20 21 21 19 17 16 18 19 18 17 16 15 13 13 12 12 12 11 9 8 6 4 4 4 4 3 3 3 3 3 2 1 2 2 3 3 3 6 9 8 5 6 8 11 12 12 13 11 11 13 15 15 16 16 15 17 21 23 23 23 25 26 26 26 26 26 26 26 23 19 17 16 15 17 17 17
22 24 24 23 23 22 22 21 19 18 17 17 16 14 13 14 14 12 11 10 10 9 8 7 8 8 8 7 6 4 3 3 4 4 4 4 3 3 3 3 3 3 4 4 4 4 6 9 11 10 10 11 11 11 12 13 13 13 14 16 17 18 18 16 15 17 18 18 19 21 23 24 25 26 27 26 25 24 23 21 18 17 18 18 17
18 21 21 20 18 18 18 18 17 17 16 16 14 11 9 8 8 7 6 5 4 5 4 3 3 3 2 2 2 3 3 3 6 6 6 6 4 3 3 3 3 4 5 6 6 6 6 7 10 12 12 12 13 13 13 14 14 15 14 15 16 17 16 16 16 17 16 14 14 16 17 18 20 21 22 23 25 25 25 25 22 19 20 20 17
17 18 18 17 16 16 16 14 13 12 12 13 13 10 8 7 7 6 5 4 4 3 1 1 1 1 2 3 4 3 2 3 6 8 8 8 6 4 3 3 4 5 6 7 7 7 6 5 7 12 15 15 15 16 16 16 17 18 18 18 19 19 19 19 19 19 19 18 17 17 16 17 18 17 18 19 22 25 27 27 25 22 20 19 17
15 15 15 15 15 16 15 13 11 10 9 10 10 8 6 6 6 5 5 4 5 4 3 2 1 1 0 2 3 4 4 4 5 8 9 9 8 6 4 6 8 7 7 7 7 7 7 6 8 14 17 17 17 17 18 18 19 21 21 21 21 21 21 22 21 20 20 20 20 19 19 19 18 19 19 18 18 22 25 26 24 21 19 17 16
13 14 14 14 14 14 13 12 11 10 10 9 8 6 5 5 5 4 4 3 3 3 3 2 2 2 1 1 1 2 3 4 5 7 7 8 8 7 6 8 8 6 6 8 8 8 8 7 11 16 18 18 18 18 17 18 20 21 22 22 22 22 21 22 23 21 19 20 22 23 23 23 22 22 22 20 18 18 19 19 18 17 17 19 19
13 13 13 12 12 11 11 11 10 9 8 8 7 6 5 4 4 3 3 2 2 2 2 2 2 2 1 1 1 2 2 3 5 8 8 7 6 6 6 6 6 6 7 8 9 9 9 10 14 18 18 18 18 19 19 19 19 20 20 20 20 21 22 22 22 20 19 20 22 24 25 26 25 24 24 22 19 17 17 18 17 17 18 20 20
11 11 11 11 10 10 10 10 9 8 7 6 6 5 4 4 3 3 3 3 3 3 3 3 3 3 3 2 2 3 3 3 4 6 8 9 8 8 9 8 8 8 7 6 8 9 10 13 15 17 17 17 18 18 18 17 17 18 19 19 19 20 20 20 18 18 18 20 21 23 24 26 27 27 24 21 19 19 20 20 19 18 20 20 19
10 10 10 9 9 9 8 8 7 7 6 5 6 5 4 4 3 3 3 3 3 2 3 3 2 2 2 2 3 4 4 3 2 3 6 8 8 10 11 10 10 11 8 6 7 8 11 15 16 16 16 17 16 16 15 15 16 19 19 18 17 17 16 16 16 16 18 19 20 22 23 24 25 25 22 21 22 21 21 22 21 20 21 21 19
9 9 9 9 9 9 8 7 6 6 6 5 5 5 5 4 4 4 3 3 2 2 2 2 2 2 2 2 3 3 3 2 2 4 7 8 8 10 10 9 10 10 7 7 9 11 14 17 17 15 15 16 15 14 14 14 14 14 13 13 13 13 13 14 14 15 17 18 19 21 22 22 22 19 18 21 20 18 19 22 21 20 20 20 18
8 9 9 8 8 8 8 7 6 6 6 6 6 5 5 4 4 5 5 4 3 2 3 3 3 3 3 3 4 4 3 2 4 7 11 12 12 12 11 10 10 9 9 10 14 15 15 15 14 13 13 14 13 12 12 12 12 12 12 12 13 13 13 15 16 16 17 18 20 20 21 22 19 15 16 18 17 17 20 21 21 21 20 18 15
7 8 8 8 7 7 7 7 6 5 6 6 6 7 7 5 4 4 5 4 3 2 2 3 4 4 4 5 5 5 5 5 8 12 14 14 14 14 13 13 12 13 13 15 17 17 13 11 11 10 10 10 10 10 11 11 12 12 13 13 14 14 14 16 18 18 17 17 19 20 20 19 15 13 15 14 13 13 14 15 16 19 18 16 15
6 7 8 8 7 6 6 6 6 5 5 4 4 6 7 7 6 4 3 3 4 4 2 1 2 4 4 5 6 7 7 9 12 14 13 12 12 12 12 13 14 15 15 16 16 14 12 10 10 9 9 10 11 12 12 13 13 13 14 14 14 14 14 15 17 17 17 17 18 18 18 18 16 16 15 12 10 11 11 9 9 10 10 10 11
5 6 7 8 7 5 5 6 5 5 4 3 2 2 3 6 7 6 3 1 1 1 1 1 2 4 4 4 5 7 9 11 12 13 12 12 11 10 10 11 12 13 15 15 14 11 10 10 10 10 11 12 13 13 13 14 14 15 15 15 15 15 16 16 16 17 17 17 17 17 17 18 20 20 17 15 14 15 15 13 11 10 9 6 5
4 4 5 6 5 4 4 4 5 4 4 3 3 2 1 4 6 7 6 4 2 2 2 1 2 3 4 4 6 7 9 11 12 12 13 13 12 12 12 12 12 12 13 12 11 9 9 10 12 12 13 13 13 14 14 14 15 15 16 16 16 16 16 17 16 16 17 17 17 17 16 17 19 20 19 19 18 18 18 16 14 13 10 6 4
3 3 3 3 3 3 3 4 4 4 4 4 3 3 3 1 3 5 6 6 6 6 6 5 4 3 3 5 6 7 8 10 12 12 12 13 12 12 12 11 11 13 12 9 7 8 9 10 12 12 13 13 14 14 14 15 15 15 15 16 17 17 17 17 16 17 17 17 16 16 15 15 17 19 20 20 20 20 19 17 17 15 12 10 10
2 3 3 3 3 3 3 4 4 4 4 4 3 3 3 3 2 2 3 4 5 5 5 6 7 6 6 6 6 7 8 9 9 10 11 11 10 10 10 8 8 11 12 8 7 9 10 11 12 13 13 14 14 14 14 15 15 15 15 16 17 17 18 17 17 17 17 17 16 15 14 15 18 20 21 20 20 19 18 18 18 15 12 12 12
1 1 2 2 3 3 2 3 3 4 3 3 3 3 3 3 3 2 2 2 1 2 3 3 4 6 7 6 6 6 6 6 6 8 9 8 7 9 9 8 7 9 10 9 9 10 11 12 13 13 14 14 14 14 15 14 14 14 16 16 17 17 17 16 16 16 16 16 15 13 13 15 18 20 22 21 19 18 17 18 16 14 11 11 11
1 1 1 1 2 2 2 2 2 3 3 2 2 3 3 3 2 2 3 3 3 2 2 2 2 5 7 8 6 5 5 6 7 8 8 8 9 10 10 9 8 9 10 10 10 11 12 12 13 13 14 14 14 14 14 13 12 13 14 15 15 15 15 15 14 15 14 14 12 11 13 15 16 19 21 20 19 18 16 15 13 12 11 10 9
2 1 2 2 3 2 2 2 2 2 3 2 2 2 3 3 3 3 3 4 3 3 3 3 4 4 6 8 8 7 7 8 10 11 11 11 11 10 9 9 9 10 11 11 11 12 12 12 13 13 13 12 13 13 12 11 11 11 11 12 12 12 12 12 12 11 10 8 5 6 10 13 17 20 22 21 20 18 17 15 12 11 10 9 8
2 3 4 3 3 3 2 1 1 1 1 2 2 2 2 3 4 4 3 3 3 3 3 4 5 5 6 9 10 10 8 8 9 10 11 11 10 9 9 9 10 11 11 12 12 12 12 12 12 12 12 12 12 12 11 10 10 10 10 9 9 9 9 8 7 5 3 3 4 8 12 15 17 19 21 20 18 17 16 14 12 11 10 8 6
1 1 3 2 1 3 3 2 1 1 1 1 1 1 2 3 4 4 4 3 3 4 4 4 5 6 8 9 10 10 9 8 8 8 9 10 9 9 9 10 11 11 12 12 12 12 12 13 13 12 12 12 12 12 11 10 9 9 8 7 6 6 6 6 5 5 7 8 9 12 15 17 17 16 16 16 16 17 16 15 12 10 9 7 5
2 1 2 2 1 1 1 1 2 1 1 1 1 1 2 3 4 5 4 3 3 4 5 5 5 6 8 9 9 8 8 8 8 8 9 9 9 10 10 10 11 11 11 11 12 12 13 13 13 13 12 12 12 11 10 9 8 6 5 5 5 5 6 5 6 9 11 12 12 13 14 15 15 14 14 14 15 15 14 12 10 8 6 6 5
3 2 0 1 1 1 1 2 2 2 2 2 1 1 1 3 4 4 3 3 3 4 4 5 5 6 9 9 7 7 7 7 8 8 8 8 9 9 10 9 9 10 10 10 10 11 12 13 13 12 12 12 11 11 9 8 6 5 4 4 6 7 7 8 11 13 14 14 14 14 14 13 12 12 12 13 13 12 11 10 8 7 6 6 5
4 3 2 1 2 2 2 2 2 2 3 2 2 1 0 2 3 4 3 3 3 4 4 5 5 6 9 10 10 9 7 7 7 8 8 8 8 8 8 8 8 8 9 9 9 9 10 11 11 11 11 11 11 10 10 8 6 5 5 5 7 8 8 9 12 13 13 14 14 13 11 10 9 9 10 11 10 9 9 8 7 7 6 5 5
3 3 2 2 2 2 2 2 2 3 3 3 2 2 1 1 2 2 3 3 3 4 5 5 5 6 8 11 11 10 8 7 7 8 8 8 8 8 8 8 8 8 8 8 8 7 7 8 9 10 10 10 10 9 9 7 6 6 7 7 9 10 10 10 11 12 12 12 11 9 7 7 7 8 9 8 8 8 8 8 7 6 5 5 4
4 3 2 2 2 1 1 2 3 2 2 2 4 3 1 1 2 2 3 3 3 4 4 5 6 6 7 9 10 10 9 9 8 8 8 8 8 7 7 8 9 9 9 10 10 8 7 6 8 9 9 10 9 8 7 7 7 7 8 9 10 11 11 11 11 11 10 10 8 7 6 6 7 7 7 7 8 8 7 6 6 5 5 5 5
5 4 3 3 3 2 1 2 2 0 2 5 5 3 1 1 2 2 3 3 3 4 4 5 5 6 7 8 9 10 10 9 9 8 9 9 9 9 10 11 12 12 11 10 11 11 10 9 8 9 10 11 12 12 11 10 9 9 9 9 10 10 10 10 10 9 8 7 7 6 6 7 6 6 6 6 6 6 5 5 5 5 5 5 5
5 4 3 3 2 1 1 1 0 2 3 4 4 3 1 2 2 3 3 3 3 4 4 5 5 6 6 7 8 9 9 9 9 8 9 9 10 12 13 14 14 14 13 11 10 10 10 10 9 9 10 11 12 11 11 11 10 10 10 10 10 10 9 9 9 8 6 6 7 7 6 6 6 5 5 5 5 5 5 5 4 4 4 4 4
5 4 3 2 1 1 1 1 1 2 3 3 3 2 1 2 2 3 4 4 4 4 5 5 5 6 6 6 6 7 7 8 8 8 8 8 9 11 13 13 13 14 15 14 12 12 12 12 11 10 9 9 9 9 9 9 9 10 10 11 11 10 9 9 8 7 5 5 6 6 6 5 5 5 5 5 5 5 5 5 5 4 4 4 3
5 5 4 3 1 1 1 2 2 2 3 3 3 2 2 2 3 4 4 4 4 5 5 5 5 5 5 5 5 5 6 6 6 6 7 7 7 8 11 12 12 12 13 13 13 13 13 13 13 12 12 11 11 11 10 9 9 9 9 10 10 10 10 9 8 6 5 5 6 5 5 5 5 5 5 5 5 5 5 5 6 5 4 4 4
6 6 5 3 2 1 1 1 2 3 3 3 3 2 2 3 4 5 5 4 4 4 4 4 4 4 4 4 4 4 4 5 5 5 6 6 6 7 9 10 11 11 10 10 11 12 12 12 11 11 11 11 10 10 10 9 8 8 8 8 8 8 8 8 7 7 7 6 6 5 5 5 5 5 5 5 6 6 6 6 6 5 5 5 4
7 6 5 4 3 1 1 2 2 2 3 3 3 3 2 3 5 5 5 4 4 4 4 4 4 4 4 4 3 3 4 4 4 4 5 5 6 7 8 10 11 11 10 10 11 11 10 10 10 9 9 8 8 8 8 7 6 6 6 6 6 6 7 8 8 8 8 7 5 5 5 5 5 5 5 5 5 5 5 5 4 4 5 5 4
7 7 6 5 4 2 1 2 3 3 3 3 3 3 3 4 6 6 5 5 4 4 4 4 4 4 4 3 3 3 3 3 3 3 4 4 5 6 7 8 9 10 10 10 10 10 10 9 9 10 9 9 9 9 8 7 7 7 7 6 7 7 7 8 8 9 9 8 6 5 5 5 4 4 4 3 3 3 3 2 2 2 3 4 3
Wind_Direction
174 173 173 173 171 170 171 172 172 171 170 171 169 166 166 164 161 157 154 153 152 158 166 165 171 177 178 182 181 183 186 184 186 186 181 178 179 181 182 189 194 189 186 185 182 179 178 178 177 173 175 175 168 166 166 163 163 165 161 154 148 155 176 174 149 147 159 172 178 177 177 183 189 192 192 191 196 199 195 198 211 211 205 214 231
168 169 168 170 171 170 173 175 177 177 175 175 171 166 167 167 164 162 159 158 158 161 165 163 170 175 175 174 170 172 176 174 172 175 175 172 170 171 176 182 183 180 178 176 172 169 171 173 171 170 177 177 171 170 168 166 168 167 164 165 162 163 179 185 156 151 165 178 186 183 182 192 199 198 199 199 196 199 204 206 210 212 213 218 227
160 163 163 164 166 167 170 174 178 179 176 175 172 167 167 168 166 165 163 162 162 161 157 159 165 170 170 164 155 154 159 158 154 155 159 161 160 160 165 172 172 167 163 161 159 158 165 170 167 172 179 178 177 175 171 173 175 169 169 174 174 173 184 197 182 167 172 179 190 194 188 196 208 206 202 204 203 204 210 213 213 215 219 223 227
153 156 158 157 156 158 163 170 174 175 174 173 170 166 166 166 165 165 164 162 161 158 155 157 158 164 169 166 156 150 151 154 152 151 151 150 152 155 155 155 156 157 156 154 152 150 155 163 168 177 184 183 182 180 175 178 179 174 175 179 181 184 190 201 212 206 191 186 195 205 198 197 211 215 207 207 208 210 216 219 220 221 222 226 230
151 151 151 148 148 151 156 164 167 168 168 168 168 167 164 163 162 162 162 161 159 156 158 163 162 163 167 169 167 163 160 161 163 164 161 155 152 152 151 149 149 149 148 147 144 142 144 151 157 170 183 187 187 185 183 183 184 183 182 183 186 189 196 211 220 227 226 210 201 209 210 203 209 217 214 211 211 214 221 225 226 228 228 228 230
148 146 145 143 145 149 149 151 154 155 157 158 162 165 162 159 159 159 158 158 157 158 161 166 170 168 168 171 174 173 168 164 164 166 166 163 161 157 153 152 152 147 145 145 143 140 144 149 147 154 170 181 186 189 189 188 192 192 190 196 199 192 200 220 227 230 236 235 220 211 213 213 215 218 217 216 218 219 222 227 230 231 232 228 225
139 137 139 136 136 140 143 149 155 158 159 156 154 154 155 156 154 152 156 155 152 154 155 160 169 169 166 166 167 168 168 166 162 165 165 163 164 166 164 161 160 155 153 155 154 151 152 151 147 146 154 164 170 180 188 189 195 197 194 204 216 211 214 229 236 235 233 238 236 221 215 219 221 223 222 219 223 227 227 229 231 231 230 228 226
137 136 134 127 124 122 123 139 152 156 156 152 144 137 138 146 146 144 150 152 147 143 143 149 158 161 162 165 164 161 161 161 163 169 173 172 171 173 175 175 174 171 169 166 162 164 164 156 148 144 146 153 154 160 173 179 186 196 199 207 220 224 227 231 235 237 232 232 236 232 228 226 221 225 230 223 222 230 232 233 237 239 234 228 227
137 138 135 134 139 141 133 132 137 142 146 146 143 137 128 126 136 146 150 149 143 137 138 145 151 156 159 158 148 142 148 157 166 170 168 174 182 183 184 185 183 179 178 173 166 167 168 162 158 153 148 152 154 153 165 174 183 197 204 210 217 220 227 231 228 231 230 227 230 232 234 232 223 225 230 226 226 234 238 238 241 249 249 236 228
130 129 128 132 142 147 143 136 135 139 141 140 141 140 133 125 126 137 147 147 140 135 135 140 148 154 150 138 132 153 174 179 181 181 170 162 172 180 186 190 189 183 179 174 168 168 169 167 173 179 170 166 169 171 178 186 199 212 216 217 222 226 232 235 233 232 232 231 229 228 231 235 233 232 234 235 237 243 246 243 241 249 256 249 235
121 120 122 131 139 142 140 137 137 139 138 139 141 145 150 152 144 132 129 127 123 125 128 129 133 133 124 121 136 161 170 172 179 188 189 182 166 159 174 183 186 185 181 179 180 180 179 178 184 194 196 196 205 214 221 221 221 227 232 232 236 240 242 246 247 243 241 242 242 238 239 242 244 246 246 245 247 247 248 250 251 256 258 254 247
116 117 122 132 137 138 138 134 133 135 140 148 152 153 157 157 153 150 145 129 110 109 110 105 104 103 100 107 122 129 134 147 159 172 194 199 182 166 171 170 171 180 185 187 189 183 180 183 185 197 212 219 228 243 252 253 249 246 244 242 241 240 241 247 253 253 253 253 252 250 249 251 254 256 255 255 257 256 255 256 258 262 262 258 259
114 114 117 124 127 131 134 131 129 132 138 146 148 150 150 146 144 146 147 141 122 114 112 103 95 93 95 103 111 112 114 120 128 141 160 175 170 164 175 174 170 175 180 190 199 185 183 193 196 208 233 246 254 259 261 265 269 265 259 254 250 245 241 242 244 248 252 255 255 254 252 253 255 258 261 262 260 260 261 260 259 260 262 262 265
110 108 109 111 113 118 124 125 125 128 132 135 136 137 137 133 130 128 126 124 116 113 117 111 97 89 92 101 104 103 102 103 105 119 131 148 158 145 122 166 165 164 165 188 219 215 216 232 234 234 246 261 261 251 253 264 267 266 263 258 256 254 253 250 248 246 247 249 252 255 255 255 255 257 258 253 248 253 259 261 260 258 258 259 258
104 105 103 100 101 108 114 116 114 112 117 121 123 126 127 125 123 118 113 111 107 104 110 111 103 91 87 91 92 90 89 93 102 112 114 135 143 106 45 12 38 24 50 57 274 259 259 267 265 256 256 254 242 237 243 252 254 255 255 252 251 252 253 254 255 254 252 250 251 253 256 257 256 254 247 239 242 251 256 256 256 254 251 249 245
96 100 101 100 101 105 108 110 108 104 105 105 105 110 114 114 115 115 112 109 106 103 105 108 107 101 95 90 85 81 80 81 86 93 100 118 109 70 40 31 47 39 33 15 328 303 302 298 284 278 278 261 251 252 253 252 251 255 256 255 254 252 250 253 259 261 257 253 252 252 253 253 253 250 245 243 247 249 246 246 243 240 242 245 244
90 93 96 98 102 105 105 105 107 108 107 102 96 95 97 99 104 107 108 106 104 102 103 106 108 109 109 104 92 79 69 65 66 63 66 84 85 57 30 23 32 15 349 329 323 305 276 276 285 295 288 263 261 269 272 268 264 264 261 259 257 256 252 252 258 263 262 258 255 254 255 256 256 255 254 254 254 246 237 240 240 238 243 249 254
87 89 90 93 98 102 104 103 103 104 106 106 105 103 101 102 103 103 102 102 102 100 98 99 103 106 108 110 108 97 64 37 26 27 22 19 39 32 3 340 329 322 311 295 289 281 275 277 277 270 264 264 266 272 277 277 274 269 266 267 265 262 259 253 253 262 266 264 259 255 255 255 256 256 255 255 254 247 238 240 246 248 248 251 257
86 90 91 92 93 97 103 106 106 105 103 102 102 102 105 109 110 111 110 110 111 109 102 95 93 92 87 85 88 88 67 9 345 351 350 341 1 12 343 323 313 309 306 294 284 277 279 284 282 272 265 268 271 273 274 274 270 266 268 270 267 265 266 262 257 260 265 266 262 258 256 256 256 256 255 254 253 247 241 241 248 252 252 253 253
84 90 92 91 88 91 97 100 102 104 103 101 96 86 82 91 101 108 116 122 121 121 127 125 110 109 110 72 28 34 43 359 333 335 337 332 340 3 3 338 319 316 308 293 285 275 267 276 284 280 273 274 279 281 278 275 271 267 266 267 265 266 270 270 266 264 262 262 262 260 257 256 255 252 250 252 253 250 245 243 245 246 249 252 248
80 83 87 88 89 91 90 86 85 88 94 101 101 85 69 71 78 81 86 93 93 91 110 166 127 202 246 265 289 305 325 326 321 323 327 327 327 341 6 328 308 313 306 292 285 279 267 263 273 275 274 277 282 281 279 279 277 273 268 265 264 266 269 270 271 271 268 265 263 260 255 251 250 245 240 243 248 251 250 248 244 241 242 246 247
78 79 81 83 85 86 83 77 76 75 77 89 97 90 74 73 79 85 95 104 102 101 114 127 119 113 356 322 314 315 316 313 315 317 318 319 319 320 312 294 295 303 302 293 286 280 278 277 273 270 273 280 284 281 278 278 277 275 273 272 271 272 272 269 268 269 270 267 262 259 255 249 247 248 245 239 236 241 247 248 241 235 234 234 239
82 81 81 80 78 78 76 73 72 72 71 77 84 81 73 73 79 87 101 114 121 121 121 120 126 128 107 60 40 10 344 327 327 330 328 323 320 317 306 297 297 296 288 283 280 279 279 275 270 272 281 290 291 286 281 276 273 273 274 274 274 275 275 271 266 262 262 262 260 258 256 252 250 251 250 244 233 227 232 234 226 219 222 223 223
82 81 80 80 77 75 73 70 69 69 67 70 73 70 64 61 59 55 55 60 79 91 80 56 41 40 35 30 33 21 1 330 324 335 347 349 338 334 331 319 310 306 291 275 268 269 267 266 271 279 288 292 291 290 289 284 279 274 270 269 270 269 268 267 265 258 253 252 252 252 253 254 253 251 250 247 235 218 213 215 212 209 215 218 215
80 79 79 78 76 75 74 70 68 66 63 64 66 63 60 57 52 46 38 31 33 38 36 36 30 15 5 4 350 336 338 330 313 326 348 357 354 348 346 340 333 334 321 279 265 271 275 280 288 295 299 301 301 300 296 292 287 283 282 281 277 270 262 258 255 252 248 247 247 248 251 253 253 253 252 243 224 212 211 213 210 207 209 209 206
76 74 74 74 71 71 73 72 70 66 61 61 62 57 54 55 53 48 45 44 45 40 30 29 32 23 5 349 335 323 322 324 319 332 350 355 346 337 337 335 333 338 338 312 300 308 305 303 307 310 311 312 312 307 301 297 295 294 295 291 280 267 256 249 248 250 251 251 250 251 252 254 256 256 247 225 211 211 215 211 202 197 200 199 192
76 73 71 71 67 64 63 63 62 60 56 59 64 61 57 55 51 50 48 41 41 46 45 32 26 20 3 335 326 317 307 315 358 3 355 348 336 329 330 328 326 332 333 321 317 317 311 311 315 318 318 320 319 314 311 311 306 302 298 287 272 262 256 255 256 257 259 260 259 257 256 258 256 245 223 211 212 214 212 206 196 188 188 186 178
70 69 66 64 63 61 57 53 53 57 58 60 61 57 52 51 53 50 39 27 23 23 20 25 27 12 352 342 335 326 325 4 13 350 338 332 327 325 325 323 324 327 321 314 315 316 313 312 314 315 315 316 316 311 308 307 305 302 297 289 280 274 269 267 266 265 265 265 264 262 263 262 254 229 208 211 215 210 205 201 192 182 178 175 168
62 62 59 58 58 56 52 50 51 57 65 70 71 60 46 39 52 55 40 37 56 71 44 25 19 4 352 350 347 340 339 347 338 328 325 322 318 317 316 313 315 316 314 314 318 319 314 308 306 308 311 311 309 308 305 303 302 300 298 294 289 284 278 274 272 270 269 267 265 264 264 261 249 223 212 213 208 201 200 195 186 180 176 172 170
51 50 48 47 47 47 49 49 48 52 60 69 84 77 58 48 51 54 51 52 58 66 75 40 350 350 351 347 342 335 329 326 326 326 328 326 319 314 311 308 309 311 312 316 320 318 310 304 305 308 311 311 310 308 307 305 303 300 298 296 292 288 286 282 278 276 273 269 267 265 260 254 245 234 224 211 192 185 183 177 173 169 160 158 165
40 45 45 40 35 33 40 41 39 43 47 46 61 94 101 89 72 54 40 65 95 69 78 282 315 341 348 337 329 324 321 324 331 336 338 338 337 334 327 321 318 315 312 315 317 310 302 304 307 309 310 310 309 307 305 305 304 303 302 299 295 291 289 285 283 283 281 275 270 265 257 249 247 241 225 203 190 183 176 169 162 153 143 144 161
35 37 37 36 30 23 27 32 31 31 33 34 34 29 87 131 111 80 57 58 96 110 88 35 351 347 341 334 331 327 327 334 342 345 346 346 347 344 340 337 333 327 322 318 311 303 300 305 308 308 308 306 304 303 304 304 303 302 301 300 298 295 291 288 288 288 286 282 276 267 256 246 242 233 214 196 185 174 164 157 153 149 149 152 146
32 27 18 19 22 19 20 20 19 22 23 24 34 36 24 41 122 112 99 89 87 84 70 53 41 24 355 345 342 337 337 341 343 343 344 345 345 347 352 356 354 352 351 338 313 306 310 310 308 307 306 305 304 304 304 303 301 302 301 300 299 297 294 293 293 290 286 285 280 268 254 240 229 216 199 184 173 162 153 150 148 145 141 130 117
19 28 16 1 358 6 12 10 9 14 21 23 28 45 52 47 46 83 119 125 121 114 89 53 31 18 15 15 5 350 343 342 342 342 344 345 354 4 5 358 354 358 360 351 328 323 322 317 313 312 309 307 306 306 304 302 303 303 302 300 300 299 298 298 297 293 289 287 281 268 250 234 220 203 185 169 159 150 144 143 143 140 136 131 128
25 66 50 14 360 2 8 10 11 15 21 36 45 43 53 74 69 55 58 69 88 125 118 82 32 9 12 20 13 358 355 356 356 356 353 355 14 20 6 349 345 352 350 343 337 333 328 322 319 317 314 312 310 308 307 305 304 302 302 302 301 301 301 301 299 298 295 290 283 267 243 223 207 189 174 162 152 143 138 139 140 138 136 137 140
225 185 119 17 1 1 7 11 18 24 29 44 65 65 56 58 59 56 58 51 28 15 46 57 14 0 8 12 9 9 16 13 7 8 13 21 32 28 14 3 3 358 349 345 343 338 332 329 326 321 319 318 316 314 312 307 301 298 301 303 303 304 306 307 305 304 301 294 282 259 230 206 185 171 162 152 142 134 127 124 125 127 130 135 142
293 320 351 358 353 352 11 25 28 48 61 47 44 61 57 42 32 28 34 38 24 9 19 22 6 360 7 8 5 10 16 7 2 8 18 25 28 27 20 14 10 3 356 353 350 343 337 335 332 328 325 321 318 316 315 309 303 303 305 306 309 315 319 319 315 311 306 296 268 213 187 171 158 153 148 138 129 124 119 112 111 114 120 129 137
330 355 355 350 337 334 348 11 2 28 65 40 33 43 32 22 22 16 17 29 27 17 29 34 20 9 5 0 359 3 7 2 359 5 12 16 17 17 16 14 10 5 1 357 353 348 343 339 335 331 327 324 322 321 320 315 313 314 315 316 320 330 340 343 346 355 19 58 98 124 131 130 130 133 131 123 117 115 113 112 111 112 119 131 138
239 359 1 3 337 329 343 346 289 281 340 6 30 41 15 9 11 6 4 19 28 26 32 33 26 18 9 358 355 0 8 10 9 7 8 13 16 14 13 11 9 5 1 358 355 353 348 343 341 338 335 334 333 330 327 326 325 326 331 336 342 355 9 16 34 78 103 102 100 108 114 113 110 108 106 109 114 117 115 114 115 117 126 139 147
217 221 16 19 323 293 316 301 267 274 316 329 316 353 7 7 5 5 12 26 36 39 36 32 33 26 7 355 358 9 14 17 19 15 12 13 14 12 11 9 5 2 360 357 356 355 353 351 350 347 344 343 343 339 337 339 343 350 359 10 28 41 44 55 81 101 110 109 104 104 106 108 107 101 95 100 112 117 114 112 114 119 124 133 145
219 203 183 339 302 272 257 264 271 282 297 298 289 308 22 16 8 10 28 46 47 49 43 39 42 25 2 4 31 47 29 17 21 22 17 14 10 8 8 7 3 1 359 357 355 355 354 354 355 354 354 354 353 353 355 358 8 23 34 52 71 74 73 82 93 99 102 102 100 97 97 99 103 103 101 103 107 109 109 111 115 118 119 125 141
229 240 255 289 306 297 291 289 271 254 260 264 253 236 44 22 14 24 54 69 62 61 52 45 47 32 13 24 54 63 43 28 31 28 20 14 9 7 6 5 4 2 358 355 354 354 355 358 359 1 3 5 5 10 17 21 29 43 55 73 88 92 91 91 94 98 101 102 101 100 100 101 102 105 107 108 105 103 106 109 109 111 118 127 140
235 263 293 310 311 308 308 303 284 272 274 255 205 177 138 40 30 45 79 85 74 71 62 49 48 40 26 30 46 53 47 40 38 31 25 19 13 10 7 7 10 12 9 7 6 1 360 7 13 14 14 14 15 20 28 32 41 56 62 68 80 89 90 90 92 96 98 100 100 99 102 108 111 108 104 103 101 101 103 103 103 107 112 115 124
227 248 276 300 304 303 310 310 306 302 275 206 168 148 120 73 61 73 100 99 80 71 65 54 50 50 42 38 44 51 51 47 42 37 33 28 22 18 16 19 27 32 33 32 35 33 29 34 40 39 37 38 42 49 52 48 48 58 65 70 78 84 87 89 93 97 100 101 96 89 91 103 109 105 98 97 101 104 104 101 101 103 103 106 113
224 241 268 297 301 291 294 312 325 332 177 176 164 148 123 100 91 92 108 106 83 70 71 65 59 59 57 54 53 54 54 52 48 45 44 44 42 41 39 40 43 47 47 47 50 50 51 57 63 64 61 60 61 66 69 66 61 61 66 72 75 77 80 86 92 96 99 97 91 88 92 96 97 96 96 98 98 95 92 94 98 101 100 105 112
223 234 266 296 305 293 292 300 185 153 167 174 172 166 143 112 110 113 115 104 83 77 83 81 71 67 66 63 60 58 56 54 51 49 50 52 52 51 51 52 53 54 52 50 50 51 52 58 67 71 71 67 63 60 62 67 69 68 71 78 79 76 78 85 89 88 84 82 85 90 93 90 87 92 98 92 81 75 79 87 95 103 101 101 112
226 229 257 286 301 268 222 183 142 152 165 171 172 170 148 123 128 131 122 107 95 96 98 92 81 75 72 69 66 60 55 54 53 51 51 51 51 51 53 54 55 55 54 53 55 57 58 59 62 64 62 61 61 58 57 59 62 66 75 82 84 84 87 91 91 86 77 74 80 86 86 84 88 96 95 84 77 80 87 92 93 98 107 108 109
228 228 242 263 289 260 205 169 146 155 167 166 167 171 163 144 141 142 135 122 111 108 107 102 92 85 80 74 70 63 57 54 54 50 48 47 44 41 43 49 54 54 50 51 55 59 60 61 63 64 65 66 70 73 73 69 67 74 82 86 87 89 92 92 92 93 90 84 82 84 80 80 85 88 83 77 77 82 92 100 94 85 88 101 106
228 227 232 240 265 297 238 193 182 178 174 168 164 168 169 157 151 151 148 136 125 120 117 111 104 99 92 85 77 71 65 60 57 51 49 49 44 35 37 49 56 54 47 47 51 54 56 58 61 64 68 70 72 75 78 81 83 86 89 91 91 93 96 98 102 106 103 92 84 83 82 81 83 86 85 81 77 76 82 93 94 83 74 83 94
224 225 227 231 242 266 251 213 202 185 178 182 179 176 182 179 167 160 157 150 141 135 130 122 116 109 104 97 87 77 71 65 60 58 55 52 50 46 46 53 56 53 49 49 52 53 54 56 58 62 67 73 76 77 77 81 86 87 88 91 93 95 98 105 111 111 104 94 86 89 94 92 87 86 88 85 77 74 76 79 80 80 77 75 75
222 223 223 224 230 240 240 217 206 197 193 196 192 179 180 182 174 167 166 163 156 150 145 138 129 118 110 101 90 83 76 66 61 61 57 52 51 52 51 53 56 54 47 45 49 54 55 56 62 68 71 75 82 83 79 76 77 77 78 85 93 96 100 104 109 109 105 99 94 95 101 101 94 85 84 79 65 62 65 64 50 50 62 67 69
Height
796 799 801 804 806 809 811 814 817 819 820 822 824 826 828 830 831 833 834 835 836 837 838 838 839 840 840 840 840 840 840 839 840 840 840 841 841 842 842 843 844 844 845 846 847 847 848 849 850 851 852 852 853 855 856 858 860 860 862 863 864 865 865 864 865 869 873 875 875 877 878 879 880 881 882 883 884 885 886 887 886 886 887 887 886
795 798 801 804 806 808 811 814 816 818 820 822 824 825 828 829 831 832 833 835 835 836 838 838 839 840 840 840 840 840 840 840 840 841 841 841 842 842 843 843 844 844 845 846 847 847 848 848 849 850 852 852 853 855 856 858 859 860 861 862 863 865 865 864 864 867 872 874 875 876 877 878 879 880 881 882 883 884 885 885 885 886 886 887 886
794 798 800 803 806 808 811 813 816 818 820 822 823 825 827 829 830 832 833 834 835 836 837 838 839 840 840 841 841 841 841 841 841 842 842 842 842 843 843 843 844 845 845 846 847 848 848 849 850 851 852 853 854 855 856 857 858 858 860 862 863 864 865 865 865 866 869 872 874 875 876 878 878 878 879 881 882 883 883 884 884 885 885 885 885
793 797 800 802 805 807 810 813 815 818 820 822 823 825 826 828 830 831 833 834 835 836 837 838 839 840 841 841 842 842 842 842 842 843 843 843 843 843 844 844 845 845 846 846 847 848 849 850 850 851 852 853 854 855 856 857 857 858 860 861 863 864 865 866 866 866 867 869 872 873 874 876 877 877 878 879 880 881 882 882 882 883 883 883 884
792 796 799 802 805 807 810 813 815 817 820 821 823 825 826 828 829 831 832 834 835 836 837 838 839 839 840 841 842 843 843 843 843 843 844 844 844 844 845 845 845 846 846 847 848 849 850 850 851 851 852 853 854 855 857 857 858 858 859 860 862 863 865 866 867 867 867 867 869 871 872 873 875 875 876 877 878 879 880 880 880 880 881 881 882
791 795 799 802 805 808 810 813 815 817 819 821 823 825 826 828 829 831 832 833 835 836 837 838 838 839 840 841 842 843 844 844 844 844 845 845 845 845 846 846 846 847 847 848 849 849 850 851 851 852 853 853 854 855 856 858 858 859 860 860 861 862 865 866 866 867 867 867 867 869 870 871 873 873 874 874 875 876 877 878 878 878 879 879 880
790 794 798 802 806 809 811 813 814 817 819 821 823 825 827 828 829 831 832 833 834 835 836 838 838 839 840 841 842 843 844 844 845 845 846 846 846 846 846 847 847 848 848 848 849 850 850 851 851 852 853 853 854 855 856 857 858 859 860 861 861 862 864 865 865 865 866 866 866 867 868 870 871 871 872 873 873 874 874 875 875 876 877 877 878
790 794 798 801 805 809 812 814 815 817 819 820 823 825 827 829 829 831 832 834 834 835 836 838 839 839 840 841 843 843 844 844 845 845 846 846 847 846 847 847 847 848 849 849 849 850 850 851 851 852 853 853 854 855 855 856 858 859 860 861 862 862 863 863 864 864 864 865 865 865 866 867 869 870 870 871 871 872 872 872 872 872 873 874 875
790 793 797 800 804 808 813 815 816 818 819 820 822 824 826 829 830 832 833 834 835 835 836 838 838 839 840 841 843 843 844 844 844 845 846 846 847 847 847 848 848 848 849 849 849 850 850 851 851 852 852 853 854 854 855 856 857 858 860 861 861 862 862 862 862 862 862 863 863 864 864 865 866 868 869 869 869 870 870 870 870 869 869 870 872
790 794 798 801 804 808 812 814 815 818 819 821 823 825 827 829 831 833 834 835 835 836 837 838 838 839 840 841 842 843 844 844 845 845 846 846 847 847 847 848 848 848 849 849 849 850 850 851 851 851 852 853 854 854 855 856 857 858 859 859 860 861 861 861 861 861 861 861 861 862 862 863 864 865 866 867 868 868 868 868 868 868 867 867 869
792 796 799 802 805 808 811 813 815 817 819 821 824 826 827 829 831 833 835 835 836 836 837 838 839 840 841 841 842 843 844 845 845 846 846 847 847 847 848 848 848 848 848 849 849 850 850 851 851 852 853 853 854 854 855 856 856 857 858 858 859 859 860 860 860 860 860 860 860 860 860 861 862 863 863 864 865 866 866 866 866 866 865 865 866
793 797 800 803 805 807 810 813 815 818 820 823 825 826 827 828 830 833 835 836 836 836 837 839 839 840 841 841 842 843 844 845 845 846 847 847 848 848 848 848 848 848 848 848 849 849 850 851 852 852 853 853 854 854 855 855 855 856 857 857 858 858 858 859 859 859 860 860 859 859 859 860 861 861 861 862 862 863 863 864 864 864 863 863 863
795 798 801 804 806 807 811 814 816 818 821 824 825 827 828 828 830 832 834 836 836 836 837 838 840 841 841 842 843 843 844 845 846 846 847 847 848 848 848 848 848 848 849 849 849 849 850 851 851 852 852 852 853 854 854 854 854 855 855 856 856 856 857 857 858 858 858 859 858 858 858 858 859 859 860 860 861 861 861 861 862 862 861 861 860
798 800 803 806 807 809 812 816 818 820 823 825 826 827 828 829 830 832 834 835 835 836 837 838 839 841 842 842 843 844 845 845 846 846 847 847 847 848 848 848 848 849 849 849 850 850 851 851 851 851 852 852 853 853 853 854 854 854 854 854 854 855 855 855 856 856 857 857 857 856 856 857 857 857 858 858 859 859 859 859 859 859 859 858 858
801 802 806 808 810 813 816 818 820 822 825 827 827 828 829 829 830 831 833 834 836 837 838 838 840 842 843 844 844 845 845 846 846 847 847 847 847 848 848 848 849 849 849 849 850 850 850 851 851 851 852 852 852 852 852 853 853 853 853 853 853 853 853 853 853 854 854 854 854 854 854 855 855 855 855 856 856 856 856 857 857 857 857 856 856
804 805 808 810 812 817 819 819 821 824 826 828 829 830 830 830 830 832 833 834 837 838 839 839 840 842 843 845 845 846 846 846 847 847 847 847 847 848 848 849 849 849 849 849 850 850 850 850 850 851 851 851 850 850 851 851 851 851 851 851 851 851 850 850 850 851 852 852 852 852 852 852 852 853 853 853 854 854 854 854 854 854 855 854 853
809 809 811 814 817 820 822 822 824 826 827 829 830 831 832 832 832 833 834 835 838 840 840 840 841 842 843 844 845 846 846 847 847 847 847 847 848 848 849 849 849 849 849 849 850 850 849 849 850 850 850 849 849 849 849 849 849 849 849 848 848 848 848 848 847 848 848 848 849 849 849 849 850 850 850 850 851 851 852 851 851 851 851 850 849
814 814 815 818 820 822 823 825 827 828 828 829 830 832 833 833 834 834 835 837 839 841 841 841 841 842 842 843 844 844 845 846 846 846 847 847 847 848 849 849 849 849 849 849 849 849 848 848 849 849 849 848 848 848 847 847 848 848 847 846 846 845 845 845 844 844 844 845 845 845 845 845 846 846 846 846 847 847 848 847 847 848 847 846 845
819 819 821 822 823 824 825 827 830 830 831 831 831 833 834 834 835 835 836 838 840 842 842 842 842 842 843 844 844 844 844 845 845 846 846 846 846 847 848 848 848 848 849 848 849 849 848 847 847 847 847 847 846 846 846 846 846 845 845 845 844 843 843 842 841 841 841 841 841 841 841 841 842 842 842 842 843 843 844 844 844 844 843 842 843
824 824 824 825 827 829 829 830 831 832 832 832 833 835 836 837 836 836 837 838 840 842 843 843 842 843 844 846 846 845 844 845 845 846 845 845 845 846 847 848 848 848 848 848 848 848 847 847 845 845 845 845 845 845 844 844 844 843 843 842 841 840 839 838 838 839 839 839 839 839 838 838 838 838 837 837 838 838 839 839 840 841 840 839 840
828 828 828 830 831 832 832 832 833 833 833 833 833 836 838 838 838 837 838 839 840 841 842 843 843 844 844 845 845 845 844 845 845 846 845 845 845 846 847 847 847 847 848 847 847 847 847 846 845 843 843 843 843 842 842 842 841 841 840 840 839 838 837 836 836 836 836 836 836 836 836 836 836 835 834 833 833 833 834 834 835 836 837 837 836
831 832 832 833 834 833 834 834 835 835 835 834 836 838 839 839 839 840 841 841 841 842 843 843 843 844 844 844 844 844 844 844 845 846 845 844 844 845 845 845 845 846 846 846 846 845 845 845 843 841 840 841 841 840 840 839 839 838 837 837 836 836 835 835 834 834 834 833 833 833 832 832 832 832 831 830 829 829 829 830 831 832 834 834 833
834 834 835 836 836 836 836 836 837 838 837 837 838 839 840 840 841 842 842 842 842 842 843 843 843 843 843 843 843 843 843 844 844 845 844 843 843 844 844 844 844 845 845 845 844 844 843 843 841 839 839 838 838 837 837 837 836 835 834 834 834 833 833 831 831 831 831 831 830 829 829 828 828 827 827 827 826 825 825 827 828 829 830 830 830
836 836 837 837 838 838 838 839 839 839 839 840 840 840 841 841 842 842 842 842 842 842 842 842 842 842 843 843 843 844 844 844 844 844 843 843 843 843 843 843 843 844 843 843 843 842 842 840 839 838 837 836 835 834 833 833 832 832 831 831 830 830 829 828 827 827 827 827 826 825 825 824 823 823 823 823 824 823 822 823 825 825 826 826 827
838 838 839 839 839 840 840 840 840 841 842 842 841 842 842 842 842 843 843 843 843 843 842 842 842 842 843 843 844 844 845 845 844 844 843 843 843 843 843 842 842 842 841 841 841 840 839 838 837 836 835 834 832 831 829 828 828 827 827 827 827 826 825 824 824 824 823 822 821 820 820 819 819 819 819 819 820 820 819 820 821 822 823 823 825
841 841 841 841 841 841 841 842 842 842 843 842 842 843 843 843 843 844 843 844 844 844 843 843 843 843 843 843 844 844 845 845 845 844 844 844 843 843 842 842 841 840 839 839 839 838 836 835 834 833 832 831 829 828 827 826 824 823 822 822 821 821 821 821 820 819 818 817 816 816 815 815 815 816 815 815 816 817 816 816 817 818 819 821 822
843 843 843 843 843 843 843 843 843 843 843 843 843 844 844 844 844 844 844 845 844 844 844 844 843 843 844 844 844 844 844 845 844 844 844 844 843 843 842 842 841 840 839 838 837 836 834 832 831 830 829 827 826 825 823 823 822 821 820 819 818 818 818 818 817 816 815 814 813 812 811 811 812 812 811 812 813 815 814 813 814 815 817 819 820
845 845 845 845 845 845 845 845 844 845 845 845 845 845 845 845 845 845 845 845 845 845 844 844 844 844 844 844 844 844 844 844 844 843 843 842 842 841 841 841 840 839 838 836 835 833 832 830 829 828 826 825 824 823 822 821 820 820 819 818 817 816 815 815 814 814 813 812 811 810 809 809 809 809 808 809 811 812 812 811 811 812 815 817 819
847 847 846 846 846 846 846 846 846 846 846 846 846 846 846 846 846 846 846 846 845 845 845 845 845 845 845 845 844 844 843 843 843 842 842 841 840 839 839 838 837 836 835 834 832 831 830 829 828 827 826 825 824 823 822 821 820 819 818 817 816 815 813 813 812 811 811 810 809 809 808 807 807 807 807 808 809 810 811 811 811 811 813 815 817
848 847 847 847 847 847 848 848 848 847 847 847 847 847 847 847 847 847 847 846 846 845 845 845 845 845 845 845 844 844 843 843 842 841 840 839 839 838 837 836 835 834 833 832 830 829 828 827 826 825 824 823 823 822 821 820 819 818 817 816 815 814 812 811 810 809 809 809 807 807 806 806 806 805 806 807 808 808 810 812 812 813 814 815 817
849 848 849 849 849 849 849 849 849 848 848 847 847 847 847 847 847 847 847 847 846 846 846 845 845 845 845 845 845 844 843 842 841 840 839 838 837 836 836 835 834 832 831 830 829 828 827 826 825 824 823 822 821 821 820 819 818 817 816 815 814 812 811 810 809 808 807 806 805 805 804 804 803 804 804 805 805 806 808 810 812 814 816 818 820
851 851 852 852 852 852 851 850 849 849 848 848 847 847 846 846 846 847 848 847 847 847 847 846 846 846 845 845 844 844 842 841 840 838 838 836 835 835 834 833 832 831 830 829 828 828 827 826 824 823 822 822 821 820 819 818 817 816 815 814 812 811 810 808 807 806 806 804 803 803 802 801 801 801 802 802 803 804 806 809 811 814 817 819 821
853 853 853 852 852 852 851 851 850 849 849 848 848 847 847 846 846 846 847 847 847 847 847 847 846 846 845 844 844 843 842 841 839 838 837 836 835 834 833 832 831 831 830 829 829 828 827 826 824 824 823 822 821 820 819 818 817 816 815 813 811 810 808 807 806 805 804 803 802 801 800 800 799 799 800 801 802 804 806 808 810 813 816 817 818
854 854 853 853 852 851 851 851 851 850 850 849 848 848 848 847 847 847 846 846 846 846 846 846 846 845 845 844 843 842 842 841 840 839 838 836 835 834 833 832 831 830 830 829 829 828 827 826 824 823 822 821 820 819 818 817 816 815 814 813 811 809 807 806 805 804 803 801 800 799 799 798 797 797 799 800 802 803 805 807 810 812 814 816 817
854 854 854 854 853 852 852 852 851 850 850 849 849 849 848 848 848 847 846 846 846 845 845 845 845 845 845 845 844 843 842 841 840 839 838 837 836 834 832 831 831 830 830 829 828 827 827 825 824 823 822 821 820 818 817 816 816 814 813 811 810 808 806 805 804 803 802 800 799 798 797 796 796 797 798 800 801 803 805 807 809 812 814 816 817
854 854 854 854 853 852 852 852 851 851 850 850 849 849 848 848 847 847 846 847 846 845 845 845 845 844 845 845 844 843 842 842 841 839 838 837 835 834 833 832 832 831 830 829 828 827 826 825 824 823 821 820 819 818 817 816 815 813 812 810 809 807 806 805 804 803 802 800 799 797 796 796 796 797 798 800 802 803 805 808 810 812 814 816 818
853 852 853 853 853 852 852 852 852 851 851 850 849 849 848 848 847 846 846 847 847 845 845 846 846 845 845 845 844 843 842 841 840 839 838 837 836 835 835 834 833 832 831 830 829 828 827 826 824 823 822 821 819 818 816 815 814 812 811 810 808 807 806 805 804 802 801 800 799 798 797 797 798 798 799 801 803 804 807 809 812 814 815 817 818
852 852 852 852 852 851 850 851 851 850 850 850 849 849 848 847 847 846 846 846 847 846 845 846 847 846 845 845 844 843 841 840 840 839 838 838 837 836 836 835 834 833 832 831 830 829 828 826 825 824 822 821 819 818 816 815 813 812 811 809 808 807 806 805 804 803 802 802 801 800 799 799 800 801 801 803 805 807 809 811 813 815 817 818 819
853 853 853 852 852 851 851 851 851 850 850 849 849 849 848 847 847 847 846 846 847 847 846 846 847 846 846 845 844 842 842 841 840 840 840 839 838 838 837 836 836 835 834 832 831 830 829 827 825 824 822 821 819 818 816 815 814 812 811 810 809 808 807 806 805 804 803 803 804 803 803 803 804 805 806 807 808 809 811 813 815 816 818 819 819
853 853 853 853 853 852 852 852 851 850 850 849 849 849 849 848 847 847 847 847 847 847 847 847 847 847 847 845 844 843 842 842 842 841 841 840 839 839 838 837 837 836 835 833 832 831 829 828 826 825 823 821 820 818 817 816 814 813 812 811 811 810 809 808 807 806 805 806 807 807 807 807 808 809 810 810 811 812 813 815 816 818 819 819 820
853 853 854 854 853 852 852 851 851 850 850 849 849 849 849 849 849 848 848 848 848 848 848 847 847 847 847 845 844 843 843 843 843 842 842 841 840 839 839 838 838 836 835 834 833 832 830 829 827 825 824 822 821 819 818 817 815 814 814 813 812 811 812 811 810 809 809 810 811 811 811 812 813 813 814 814 815 815 816 817 818 819 820 821 822
852 852 852 852 852 851 850 850 850 850 850 849 849 849 849 849 849 849 849 849 849 848 848 848 848 848 847 846 844 844 844 844 843 843 842 842 841 840 840 839 838 837 836 835 833 832 831 830 828 826 825 823 822 821 819 818 817 816 816 814 813 813 814 814 813 813 813 814 815 815 815 816 817 817 818 818 818 818 818 819 819 820 821 822 823
851 851 851 851 851 851 850 850 849 849 849 849 849 850 850 849 850 850 850 849 849 849 848 848 848 848 847 846 845 845 844 844 844 844 843 843 842 841 841 840 838 838 837 835 834 832 831 830 829 827 826 824 823 822 821 820 819 818 818 817 816 816 816 816 816 816 816 817 817 818 819 820 820 821 821 821 820 820 821 821 822 822 823 823 824
850 850 851 851 851 850 850 849 849 849 849 849 849 850 850 850 850 850 850 849 849 849 848 849 848 848 848 847 847 846 846 845 845 844 844 843 842 842 841 840 839 838 837 835 834 833 832 831 830 828 827 826 824 823 822 822 821 821 820 820 819 818 818 818 818 819 819 819 820 821 822 823 823 823 823 823 823 823 823 823 824 824 824 825 825
850 850 850 850 849 849 849 849 849 849 850 850 850 850 850 850 850 850 850 849 849 849 849 849 849 849 848 848 848 847 847 847 846 845 845 844 843 843 842 841 840 839 837 836 835 833 832 831 831 830 829 828 826 825 824 824 823 823 823 822 822 821 821 821 821 822 822 822 823 824 824 825 825 825 824 824 824 824 824 825 825 825 826 826 827
849 849 849 849 849 849 849 848 848 849 849 849 850 850 850 850 850 850 849 850 849 849 849 849 849 849 849 849 849 849 848 848 848 847 846 845 844 844 843 842 841 840 838 837 836 835 834 833 832 831 830 830 829 828 827 827 826 825 825 825 825 824 824 824 824 824 825 825 825 825 826 826 826 826 826 826 826 826 826 826 827 827 828 828 828
848 848 848 848 848 849 848 848 848 849 849 849 850 850 849 849 850 849 850 850 850 849 849 849 850 850 850 850 850 850 850 849 849 848 847 847 846 845 844 843 842 841 840 839 838 837 836 835 834 833 832 832 831 831 830 830 829 828 828 827 827 827 827 827 826 827 827 827 827 827 827 827 828 828 828 828 827 828 828 828 828 829 829 829 830
847 848 848 848 848 848 848 847 848 849 849 849 849 849 849 849 849 849 850 850 850 850 850 850 850 851 851 851 851 851 850 850 850 849 849 848 848 847 846 845 843 843 842 841 840 839 838 837 836 835 834 834 833 832 832 832 832 831 830 830 830 829 829 829 828 828 828 829 829 829 829 829 829 829 829 829 829 829 829 829 830 830 830 830 830
846 847 847 847 847 847 847 847 847 848 848 849 849 850 849 849 849 850 850 850 850 850 850 850 850 851 851 851 852 851 851 851 851 850 850 850 849 848 847 846 845 844 844 843 842 841 839 838 838 837 836 835 835 834 834 833 833 832 832 832 831 831 830 830 830 830 830 830 831 831 831 831 831 831 831 831 831 831 831 831 831 832 831 831 831
845 846 846 846 847 847 847 846 846 847 848 848 849 849 849 849 849 850 850 850 850 850 850 850 851 851 851 852 852 852 851 851 851 851 850 850 850 849 848 847 846 845 844 844 843 842 841 840 839 838 837 837 836 836 836 835 834 834 833 833 832 832 832 831 831 831 832 832 833 833 833 833 833 833 833 833 833 833 833 833 833 833 833 833 833
845 845 845 846 846 846 846 846 846 846 847 848 848 849 849 849 849 850 850 850 850 850 850 851 851 851 852 852 852 852 852 851 851 851 851 851 850 849 848 847 847 846 845 845 844 843 842 841 840 840 839 838 838 837 837 836 836 835 835 834 834 833 833 833 833 833 834 834 835 835 835 835 835 835 835 835 835 834 834 834 834 834 834 834 834